CWLEESTJE Weather Reports


time (UTC)temp
C
wind
direction
speed
KPH
gust
KPH
rain 1hr
cm
rain 24hr
cm
rain mn
cm
humidity
%
barometer
mb
20260902072535 16 258 11.3 17.7 0.00 0.00 0.00 91
20260902071539 15 250 11.3 16.1 0.00 0.00 0.00 91
20260902070523 15 213 11.3 16.1 0.00 0.00 0.00 91
20260902065535 15 234 11.3 17.7 0.00 0.00 0.00 92
20260902064547 14 213 11.3 19.3 0.00 0.00 0.00 92
20260902063532 14 220 12.9 17.7 0.00 0.00 0.00 92
20260902062531 13 215 11.3 16.1 0.00 0.00 0.00 92
20260902061604 13 202 11.3 16.1 0.00 0.00 0.00 92
20260902060536 13 213 12.9 17.7 0.00 0.00 0.00 92
20260902055549 13 221 11.3 16.1 0.00 0.00 0.00 92
20260902054533 13 231 12.9 16.1 0.00 0.00 0.00 92
20260902053537 13 212 12.9 17.7 0.00 0.00 0.00 92
20260902052530 13 215 12.9 17.7 0.00 0.00 0.00 92
20260902051531 13 213 11.3 16.1 0.00 0.00 0.00 92
20260902050543 13 198 11.3 16.1 0.00 0.00 0.00 91
20260902045555 12 220 8.0 11.3 0.00 0.00 0.00 91
20260902044537 12 230 8.0 16.1 0.00 0.00 0.00 91
20260902043531 12 209 11.3 14.5 0.00 0.00 0.00 91
20260902042536 12 206 11.3 14.5 0.00 0.00 0.00 91
20260902041528 12 207 9.7 14.5 0.00 0.00 0.00 91
20260902040529 12 215 11.3 14.5 0.00 0.00 0.00 91
20260902035601 12 234 11.3 16.1 0.00 0.00 0.00 91
20260902034525 12 205 11.3 14.5 0.00 0.00 0.00 91
20260902033537 13 211 9.7 14.5 0.00 0.00 0.00 91
20260902032522 13 221 11.3 14.5 0.00 0.00 0.00 91
20260902031536 13 213 9.7 12.9 0.00 0.00 0.00 90
20260902030540 13 205 9.7 11.3 0.00 0.00 0.00 90
20260902025532 13 205 9.7 12.9 0.00 0.00 0.00 90
20260902024534 13 209 9.7 12.9 0.00 0.00 0.00 90
20260902023546 13 219 9.7 14.5 0.00 0.00 0.00 90
20260902022530 13 213 9.7 11.3 0.00 0.00 0.00 90
20260902021543 13 214 9.7 12.9 0.00 0.00 0.00 90
20260902020527 13 215 8.0 11.3 0.00 0.00 0.00 90
20260902015540 13 235 8.0 11.3 0.00 0.00 0.00 89
20260902014523 13 209 6.4 11.3 0.00 0.00 0.00 89
20260902013551 13 220 8.0 11.3 0.00 0.00 0.00 90
20260902012535 13 205 9.7 14.5 0.00 0.00 0.00 90
20260902011549 13 219 11.3 14.5 0.00 0.00 0.00 90
20260902010600 13 207 11.3 12.9 0.00 0.00 0.00 90
20260902005523 13 205 9.7 12.9 0.00 0.00 0.00 89
20260902004537 13 207 9.7 11.3 0.00 0.00 0.00 89
20260902003540 13 213 11.3 12.9 0.00 0.00 0.00 89
20260902002529 13 211 6.4 11.3 0.00 0.00 0.00 89
20260902001531 13 212 9.7 11.3 0.00 0.00 0.00 89
20260902000544 13 213 9.7 12.9 0.00 0.00 0.00 89
20260901235528 13 217 9.7 14.5 0.00 0.00 0.00 89
20260901234601 13 236 9.7 11.3 0.00 0.00 0.00 89
20260901233524 13 235 8.0 9.7 0.00 0.00 0.00 89
20260901232536 13 219 6.4 9.7 0.00 0.00 0.00 89
20260901231536 12 214 6.4 8.0 0.00 0.00 0.00 88
20260901230530 13 213 4.8 8.0 0.00 0.00 0.00 88
20260901225534 13 213 8.0 8.0 0.00 0.00 0.00 88
20260901224548 13 213 8.0 8.0 0.00 0.00 0.00 88
20260901223532 13 214 6.4 8.0 0.00 0.00 0.00 87
20260901222545 13 215 6.4 8.0 0.00 0.00 0.00 87
20260901221528 13 215 8.0 9.7 0.00 0.00 0.00 87
20260901220532 13 218 9.7 9.7 0.00 0.00 0.00 87
20260901215525 13 221 8.0 11.3 0.00 0.00 0.00 87
20260901214526 13 223 8.0 12.9 0.00 0.00 0.00 87
20260901213538 13 229 9.7 11.3 0.00 0.00 0.00 87
20260901212613 13 226 8.0 11.3 0.00 0.00 0.00 86
20260901211556 13 226 9.7 11.3 0.00 0.00 0.00 86
20260901210528 13 223 9.7 11.3 0.00 0.00 0.00 86
20260901205531 14 247 9.7 11.3 0.00 0.00 0.00 86
20260901204523 14 255 9.7 11.3 0.00 0.00 0.00 85
20260901203523 15 271 8.0 9.7 0.00 0.00 0.00 85
20260901202535 15 272 4.8 11.3 0.00 0.00 0.00 85
20260901201538 15 273 8.0 9.7 0.00 0.00 0.00 85
20260901200531 15 277 8.0 11.3 0.00 0.00 0.00 85
20260901195535 15 328 6.4 8.0 0.00 0.00 0.00 85
20260901194549 15 328 3.2 6.4 0.00 0.00 0.00 85
20260901193532 15 328 6.4 8.0 0.00 0.00 0.00 84
20260901192541 15 328 4.8 6.4 0.00 0.00 0.00 83
20260901191525 15 328 4.8 9.7 0.00 0.00 0.00 82
20260901190528 16 329 0.0 3.2 0.00 0.00 0.00 81
20260901185541 16 329 0.0 3.2 0.00 0.00 0.00 79
20260901184523 16 329 0.0 3.2 0.00 0.00 0.00 78
20260901183538 17 329 0.0 1.6 0.00 0.00 0.00 77
20260901182541 17 329 0.0 1.6 0.00 0.00 0.00 76
20260901181534 17 329 0.0 3.2 0.00 0.00 0.00 75
20260901180603 18 329 0.0 6.4 0.00 0.00 0.00 74
20260901175525 18 329 3.2 6.4 0.00 0.00 0.00 74
20260901174528 18 329 4.8 12.9 0.00 0.00 0.00 73
20260901173601 19 342 8.0 14.5 0.00 0.00 0.00 72
20260901172533 19 334 8.0 14.5 0.00 0.00 0.00 71
20260901171538 20 329 9.7 16.1 0.00 0.00 0.00 70
20260901170530 20 323 8.0 17.7 0.00 0.00 0.00 71
20260901165531 20 322 9.7 16.1 0.00 0.00 0.00 70
20260901164544 21 324 6.4 12.9 0.00 0.00 0.00 69
20260901163548 21 304 12.9 19.3 0.00 0.00 0.00 67
20260901162541 21 315 11.3 17.7 0.00 0.00 0.00 67
20260901161525 21 284 11.3 24.1 0.00 0.00 0.00 65
20260901160538 21 284 9.7 24.1 0.00 0.00 0.00 64
20260901155553 22 267 19.3 29.0 0.00 0.00 0.00 60
20260901154535 21 272 14.5 20.9 0.00 0.00 0.00 65
20260901153535 21 269 12.9 22.5 0.00 0.00 0.00 65
20260901152547 21 273 16.1 24.1 0.00 0.00 0.00 65
20260901151559 21 275 11.3 17.7 0.00 0.00 0.00 66
20260901150552 22 298 12.9 20.9 0.00 0.00 0.00 65
20260901145536 22 254 14.5 24.1 0.00 0.00 0.00 64
20260901144539 22 279 11.3 20.9 0.00 0.00 0.00 65
20260901143532 22 279 12.9 20.9 0.00 0.00 0.00 65
20260901142533 22 298 12.9 17.7 0.00 0.00 0.00 67
20260901141545 22 287 12.9 22.5 0.00 0.00 0.00 66
20260901140549 22 258 9.7 19.3 0.00 0.00 0.00 67
20260901135541 22 325 11.3 19.3 0.00 0.00 0.00 68
20260901134525 21 285 11.3 16.1 0.00 0.00 0.00 70
20260901133539 21 317 11.3 17.7 0.00 0.00 0.00 68
20260901132524 21 348 9.7 16.1 0.00 0.00 0.00 71
20260901131554 21 275 11.3 20.9 0.00 0.00 0.00 70
20260901130545 21 289 12.9 22.5 0.00 0.00 0.00 71
20260901125530 21 335 12.9 19.3 0.00 0.00 0.00 70
20260901124544 21 318 12.9 19.3 0.00 0.00 0.00 69
20260901123527 21 335 16.1 20.9 0.00 0.00 0.00 71
20260901122531 21 325 8.0 17.7 0.00 0.00 0.00 70
20260901121604 21 336 11.3 17.7 0.00 0.00 0.00 72
20260901120533 21 304 12.9 20.9 0.00 0.00 0.00 72
20260901115537 20 321 11.3 22.5 0.00 0.00 0.00 72
20260901114551 21 322 9.7 17.7 0.00 0.00 0.00 72
20260901113535 21 350 11.3 17.7 0.00 0.00 0.00 73
20260901112548 21 278 14.5 24.1 0.00 0.00 0.00 73
20260901111532 20 316 16.1 25.7 0.00 0.00 0.00 74
20260901110547 21 301 16.1 22.5 0.00 0.00 0.00 72
20260901105530 20 325 9.7 19.3 0.00 0.20 0.00 73
20260901104531 21 321 14.5 20.9 0.00 0.20 0.00 73
20260901103524 21 306 12.9 20.9 0.00 0.20 0.00 71
20260901102529 21 319 12.9 24.1 0.00 0.20 0.00 71
20260901101543 21 315 12.9 19.3 0.00 0.20 0.00 73
20260901100527 20 292 11.3 20.9 0.00 0.20 0.00 75
20260901095541 20 291 11.3 22.5 0.00 0.71 0.00 76
20260901094525 20 325 11.3 22.5 0.00 0.71 0.00 74
20260901093537 20 310 16.1 25.7 0.00 0.71 0.00 76
20260901092606 20 313 11.3 17.7 0.00 0.71 0.00 78
20260901091549 19 301 11.3 17.7 0.00 0.71 0.00 77
20260901090601 20 302 9.7 16.1 0.00 0.71 0.00 77
20260901085523 20 348 9.7 17.7 0.00 1.50 0.00 77
20260901084537 20 304 8.0 19.3 0.00 1.50 0.00 79
20260901083551 19 329 11.3 17.7 0.00 1.50 0.00 81
20260901082529 19 288 12.9 16.1 0.00 1.50 0.00 82
20260901081543 18 348 9.7 16.1 0.00 1.50 0.00 84
20260901080528 19 277 11.3 14.5 0.00 1.50 0.00 84
20260901075537 18 290 9.7 14.5 0.00 2.01 0.00 87
20260901074542 17 281 11.3 16.1 0.00 2.01 0.00 88
20260901073535 17 254 11.3 14.5 0.00 2.01 0.00 90